This demonstration page uses our WeatherBlox Daily Observations layout. Learn more.

Left ArrowRight Arrow

Hourly Observations for January 21, 2022

Temp ( °F °C ) Dew Point ( °F °C ) Humidity (%) Winds ( mph kmh ) Pressure ( in mb ) Visibility ( mi km ) Precip ( " mm )
12:44 am 00:44 Cloudy with Mist and Fog 31 -0.6 28 -2.2 89 89 NNW 6 9 30.27 1025 5 8 0.00 0.00
12:53 am 00:53 Cloudy with Mist and Fog 30 -1.1 28 -2.2 92 92 NW 6 9 30.23 1024 5 8 0.00 0.00
1:53 am 01:53 Cloudy with Mist and Fog 30 -1.1 28 -2.2 92 92 undefined N/A 30.24 1024 6 10 0.00 0.00
2:53 am 02:53 Cloudy 30 -1.1 28 -2.2 92 92 NNW 5 7 30.23 1024 8 13 0.00 0.00
3:53 am 03:53 Cloudy 30 -1.1 27 -2.8 88 88 NW 6 9 30.22 1024 9 14 0.00 0.00
4:53 am 04:53 Cloudy 30 -1.1 27 -2.8 88 88 NNW 8 13 30.23 1024 10 16 0.00 0.00
5:53 am 05:53 Cloudy 30 -1.1 27 -2.8 88 88 NNW 5 7 30.24 1024 10 16 0.00 0.00
6:24 am 06:24 Cloudy 30 -1.1 27 -2.8 88 88 NNW 5 7 30.28 1025 10 16 0.00 0.00
6:53 am 06:53 Cloudy 30 -1.1 27 -2.8 88 88 NNW 8 13 30.26 1025 10 16 0.00 0.00
7:53 am 07:53 Cloudy 30 -1.1 27 -2.8 88 88 NW 6 9 30.27 1025 8 13 0.00 0.00
8:53 am 08:53 Cloudy with Mist and Fog 30 -1.1 28 -2.2 92 92 NNW 5 7 30.29 1026 5 8 0.00 0.00
9:53 am 09:53 Cloudy with Mist and Fog 31 -0.6 29 -1.7 92 92 NNW 7 11 30.31 1026 4 6 0.00 0.00
10:53 am 10:53 Cloudy with Mist and Fog 32 0 30 -1.1 92 92 N 7 11 30.31 1026 5 8 0.00 0.00
11:53 am 11:53 Cloudy with Mist and Fog 33 0.6 31 -0.6 92 92 NW 5 7 30.30 1026 5 8 0.00 0.00
12:53 pm 12:53 Cloudy with Mist and Fog 34 1.1 32 0 92 92 NNW 3 6 30.27 1025 6 10 0.00 0.00
1:53 pm 13:53 Cloudy 35 1.7 33 0.6 93 93 NW 6 9 30.27 1025 7 11 0.00 0.00
2:53 pm 14:53 Cloudy 35 1.7 32 0 89 89 NW 5 7 30.27 1025 8 13 0.00 0.00
3:53 pm 15:53 Cloudy 35 1.7 32 0 89 89 VRB 6 9 30.28 1025 9 14 0.00 0.00
4:01 pm 16:01 Cloudy 35 1.7 32 0 89 89 NNW 6 9 30.30 1026 9 14 0.00 0.00
4:53 pm 16:53 Cloudy 34 1.1 31 -0.6 89 89 NW 9 15 30.29 1026 9 14 0.00 0.00
5:53 pm 17:53 Cloudy 34 1.1 30 -1.1 85 85 NNW 5 7 30.31 1026 8 13 0.00 0.00
6:01 pm 18:01 Cloudy 34 1.1 31 -0.6 89 89 NW 5 7 30.33 1027 9 14 0.00 0.00
6:15 pm 18:15 Cloudy 34 1.1 30 -1.1 85 85 Calm 30.33 1027 9 14 0.00 0.00
6:29 pm 18:29 Cloudy 34 1.1 30 -1.1 85 85 NNW 6 9 30.33 1027 9 14 0.00 0.00
6:40 pm 18:40 Cloudy 33 0.6 30 -1.1 89 89 N 5 7 30.34 1028 9 14 0.00 0.00
6:53 pm 18:53 Cloudy 33 0.6 30 -1.1 89 89 VRB 5 7 30.32 1027 9 14 0.00 0.00
7:01 pm 19:01 Cloudy 33 0.6 30 -1.1 89 89 NW 6 9 30.34 1028 9 14 0.00 0.00
7:53 pm 19:53 Cloudy 33 0.6 29 -1.7 85 85 NNW 7 11 30.32 1027 7 11 0.00 0.00
8:53 pm 20:53 Cloudy 32 0 30 -1.1 92 92 NNW 5 7 30.33 1027 9 14 0.00 0.00
9:53 pm 21:53 Cloudy 33 0.6 29 -1.7 85 85 NW 3 6 30.34 1028 10 16 0.00 0.00
10:10 pm 22:10 Cloudy 32 0 28 -2.2 85 85 NNW 6 9 30.37 1028 10 16 0.00 0.00
10:53 pm 22:53 Cloudy 33 0.6 28 -2.2 82 82 N 3 6 30.33 1027 10 16 0.00 0.00
11:53 pm 23:53 Cloudy 33 0.6 27 -2.8 78 78 NNW 5 7 30.32 1027 10 16 0.00 0.00

Powered by AerisWeather